DLH9KY EDDF-EKCH

Flight info

Callsign DLH9KY
Flight time 1h 4m
Altitude 33000
Route MARUN2G MARUN Y150 TOLGI DCT MAKEL N851 GESKA Z711 MONAK MONAK5C
Aircraft A320/M-SDE3FGHIRWY/LB1

Departure

Time 2026-05-04 22:26
Airport Frankfurt Main Airport (EDDF)

Arrival

Time 2026-05-04 23:30
Airport Copenhagen Kastrup Airport (EKCH)
Time Latitude Longitude Altitude Speed Heading
2026-05-04 21:38 50.04655 8.56810 356 ft 0 kts 295°
2026-05-04 22:12 50.04648 8.56834 363 ft 4 kts 295°
2026-05-04 22:12 50.04638 8.56868 362 ft 2 kts 295°
2026-05-04 22:13 50.04631 8.56904 360 ft 4 kts 260°
2026-05-04 22:13 50.04643 8.56932 356 ft 4 kts 200°
2026-05-04 22:13 50.04668 8.56945 357 ft 3 kts 204°
2026-05-04 22:13 50.04659 8.56939 358 ft 4 kts 204°
2026-05-04 22:14 50.04648 8.56930 364 ft 0 kts 204°
2026-05-04 22:17 50.04646 8.56929 356 ft 1 kts 204°
2026-05-04 22:18 50.04633 8.56921 360 ft 5 kts 199°
2026-05-04 22:18 50.04586 8.56902 361 ft 6 kts 194°
2026-05-04 22:18 50.04570 8.56896 362 ft 0 kts 193°
2026-05-04 22:18 50.04567 8.56895 362 ft 3 kts 193°
2026-05-04 22:19 50.04511 8.56875 359 ft 11 kts 193°
2026-05-04 22:19 50.04442 8.56852 366 ft 9 kts 189°
2026-05-04 22:19 50.04381 8.56838 360 ft 11 kts 189°
2026-05-04 22:19 50.04298 8.56827 366 ft 10 kts 159°
2026-05-04 22:20 50.04278 8.56913 359 ft 9 kts 79°
2026-05-04 22:20 50.04298 8.56993 359 ft 7 kts 69°
2026-05-04 22:20 50.04318 8.57078 369 ft 11 kts 70°
2026-05-04 22:20 50.04351 8.57215 362 ft 16 kts 69°
2026-05-04 22:21 50.04390 8.57380 362 ft 17 kts 69°
2026-05-04 22:21 50.04432 8.57556 365 ft 16 kts 69°
2026-05-04 22:21 50.04470 8.57715 366 ft 16 kts 70°
2026-05-04 22:21 50.04509 8.57880 366 ft 17 kts 70°
2026-05-04 22:22 50.04549 8.58047 365 ft 12 kts 69°
2026-05-04 22:22 50.04570 8.58154 364 ft 7 kts 90°
2026-05-04 22:22 50.04557 8.58196 365 ft 2 kts 129°
2026-05-04 22:22 50.04538 8.58214 366 ft 3 kts 155°
2026-05-04 22:23 50.04523 8.58223 368 ft 1 kts 160°
2026-05-04 22:23 50.04520 8.58225 367 ft 0 kts 160°
2026-05-04 22:24 50.04498 8.58238 369 ft 8 kts 160°
2026-05-04 22:24 50.04453 8.58263 372 ft 4 kts 160°
2026-05-04 22:24 50.04420 8.58270 368 ft 6 kts 194°
2026-05-04 22:25 50.04397 8.58219 371 ft 6 kts 252°
2026-05-04 22:25 50.04370 8.58098 370 ft 30 kts 249°
2026-05-04 22:25 50.04201 8.57392 366 ft 102 kts 249°
2026-05-04 22:25 50.03890 8.56087 355 ft 155 kts 250°
2026-05-04 22:26 50.03480 8.54351 651 ft 173 kts 251°
2026-05-04 22:26 50.03064 8.52612 1348 ft 172 kts 250°
2026-05-04 22:26 50.02727 8.50806 1993 ft 177 kts 265°
2026-05-04 22:26 50.02807 8.48818 2379 ft 194 kts 277°
2026-05-04 22:27 50.03001 8.46607 2643 ft 220 kts 277°
2026-05-04 22:27 50.03207 8.44190 3267 ft 230 kts 277°
2026-05-04 22:27 50.03486 8.42593 3794 ft 234 kts 296°
2026-05-04 22:27 50.04539 8.40579 4357 ft 253 kts 321°
2026-05-04 22:28 50.06013 8.38894 4931 ft 269 kts 322°
2026-05-04 22:28 50.07550 8.37139 5690 ft 277 kts 321°
2026-05-04 22:28 50.09111 8.35340 6553 ft 281 kts 321°
2026-05-04 22:28 50.10852 8.33878 7338 ft 290 kts 339°
2026-05-04 22:29 50.12848 8.33286 8157 ft 296 kts 357°
2026-05-04 22:29 50.14908 8.33628 8977 ft 302 kts 15°
2026-05-04 22:29 50.16923 8.34606 9795 ft 306 kts 17°
2026-05-04 22:29 50.18973 8.35645 10482 ft 312 kts 17°
2026-05-04 22:30 50.21092 8.36705 10892 ft 331 kts 17°
2026-05-04 22:30 50.23386 8.37828 11242 ft 349 kts 17°
2026-05-04 22:30 50.25742 8.38955 11860 ft 356 kts 16°
2026-05-04 22:30 50.28129 8.40073 12574 ft 361 kts 15°
2026-05-04 22:31 50.30549 8.41214 13267 ft 366 kts 17°
2026-05-04 22:31 50.32981 8.42467 13920 ft 370 kts 18°
2026-05-04 22:31 50.35426 8.43814 14585 ft 372 kts 19°
2026-05-04 22:31 50.37860 8.45187 15207 ft 375 kts 19°
2026-05-04 22:32 50.40381 8.46612 15846 ft 379 kts 18°
2026-05-04 22:32 50.42821 8.47981 16444 ft 382 kts 18°
2026-05-04 22:32 50.45341 8.49381 17041 ft 386 kts 18°
2026-05-04 22:32 50.47902 8.50789 17638 ft 390 kts 17°
2026-05-04 22:33 50.50494 8.52119 18229 ft 394 kts 16°
2026-05-04 22:33 50.53212 8.53418 18755 ft 397 kts 15°
2026-05-04 22:33 50.55786 8.54607 19252 ft 400 kts 14°
2026-05-04 22:33 50.58475 8.55843 19759 ft 404 kts 15°
2026-05-04 22:34 50.61184 8.57101 20272 ft 407 kts 15°
2026-05-04 22:34 50.63913 8.58390 20778 ft 410 kts 15°
2026-05-04 22:34 50.66649 8.59697 21255 ft 413 kts 15°
2026-05-04 22:34 50.69411 8.61043 21746 ft 417 kts 18°
2026-05-04 22:35 50.72072 8.62941 22161 ft 422 kts 26°
2026-05-04 22:35 50.74706 8.65023 22627 ft 425 kts 26°
2026-05-04 22:35 50.77354 8.67131 23086 ft 428 kts 26°
2026-05-04 22:35 50.80025 8.69260 23545 ft 431 kts 26°
2026-05-04 22:36 50.82712 8.71405 23938 ft 434 kts 26°
2026-05-04 22:36 50.85415 8.73565 24308 ft 437 kts 26°
2026-05-04 22:36 50.88137 8.75741 24682 ft 439 kts 26°
2026-05-04 22:36 50.90873 8.77934 25041 ft 442 kts 26°
2026-05-04 22:37 50.93629 8.80143 25402 ft 445 kts 26°
2026-05-04 22:37 50.96400 8.82364 25760 ft 447 kts 26°
2026-05-04 22:37 50.99189 8.84602 26116 ft 450 kts 26°
2026-05-04 22:37 51.01991 8.86853 26479 ft 452 kts 26°
2026-05-04 22:38 51.04813 8.89123 26822 ft 455 kts 26°
2026-05-04 22:38 51.07642 8.91405 27175 ft 457 kts 26°
2026-05-04 22:38 51.10484 8.93699 27515 ft 460 kts 26°
2026-05-04 22:38 51.13342 8.96011 27859 ft 462 kts 26°
2026-05-04 22:39 51.16216 8.98336 28192 ft 464 kts 26°
2026-05-04 22:39 51.19109 9.00678 28521 ft 467 kts 26°
2026-05-04 22:39 51.22016 9.03030 28840 ft 470 kts 26°
2026-05-04 22:39 51.24933 9.05397 29196 ft 471 kts 26°
2026-05-04 22:40 51.27860 9.07780 29524 ft 473 kts 26°
2026-05-04 22:40 51.30795 9.10179 29823 ft 475 kts 26°
2026-05-04 22:40 51.33784 9.12628 30108 ft 477 kts 26°
2026-05-04 22:40 51.36744 9.15054 30347 ft 479 kts 26°
2026-05-04 22:41 51.39722 9.17495 30587 ft 481 kts 26°
2026-05-04 22:41 51.42707 9.19943 30822 ft 483 kts 26°
2026-05-04 22:41 51.45704 9.22406 31064 ft 485 kts 26°
2026-05-04 22:41 51.48716 9.24886 31334 ft 486 kts 26°
2026-05-04 22:42 51.51722 9.27366 31671 ft 486 kts 26°
2026-05-04 22:42 51.54729 9.29847 31990 ft 485 kts 26°
2026-05-04 22:42 51.57734 9.32321 32319 ft 485 kts 25°
2026-05-04 22:42 51.60742 9.34802 32640 ft 485 kts 25°
2026-05-04 22:43 51.63742 9.37285 32958 ft 485 kts 25°
2026-05-04 22:43 51.66740 9.39774 33275 ft 485 kts 25°
2026-05-04 22:43 51.69707 9.42243 33613 ft 485 kts 24°
2026-05-04 22:43 51.72702 9.44740 33950 ft 484 kts 24°
2026-05-04 22:44 51.75694 9.47237 34257 ft 483 kts 24°
2026-05-04 22:44 51.78680 9.49739 34537 ft 483 kts 25°
2026-05-04 22:44 51.81659 9.52237 34820 ft 482 kts 25°
2026-05-04 22:44 51.84642 9.54728 35092 ft 481 kts 24°
2026-05-04 22:45 51.87630 9.57173 35343 ft 481 kts 24°
2026-05-04 22:45 51.93620 9.61996 35860 ft 479 kts 24°
2026-05-04 22:45 51.96571 9.64365 35961 ft 478 kts 24°
2026-05-04 22:46 52.02537 9.69188 35975 ft 475 kts 24°
2026-05-04 22:46 52.08445 9.74021 35975 ft 474 kts 24°
2026-05-04 22:47 52.14332 9.78855 35975 ft 474 kts 24°
2026-05-04 22:47 52.20216 9.83695 35982 ft 473 kts 24°
2026-05-04 22:48 52.26096 9.88547 35987 ft 473 kts 24°
2026-05-04 22:48 52.31979 9.93402 35984 ft 473 kts 24°
2026-05-04 22:49 52.37847 9.98264 36014 ft 472 kts 24°
2026-05-04 22:49 52.43702 10.03138 35998 ft 471 kts 24°
2026-05-04 22:50 52.49543 10.08006 35995 ft 470 kts 24°
2026-05-04 22:50 52.55375 10.12881 35993 ft 470 kts 24°
2026-05-04 22:51 52.61199 10.17773 35999 ft 470 kts 24°
2026-05-04 22:51 52.67062 10.22721 35989 ft 471 kts 24°
2026-05-04 22:52 52.72896 10.27652 35979 ft 471 kts 24°
2026-05-04 22:52 52.78726 10.32581 35967 ft 471 kts 24°
2026-05-04 22:53 52.84557 10.37535 35971 ft 471 kts 24°
2026-05-04 22:53 52.90390 10.42507 35962 ft 472 kts 24°
2026-05-04 22:54 52.96233 10.47494 35960 ft 472 kts 24°
2026-05-04 22:54 53.02068 10.52501 35962 ft 472 kts 24°
2026-05-04 22:55 53.07910 10.57525 35966 ft 472 kts 24°
2026-05-04 22:55 53.13747 10.62562 35968 ft 473 kts 24°
2026-05-04 22:56 53.19581 10.67611 35965 ft 473 kts 24°
2026-05-04 22:56 53.24472 10.71856 35959 ft 473 kts 24°
2026-05-04 22:57 53.30298 10.76934 35988 ft 472 kts 24°
2026-05-04 22:57 53.36126 10.82010 35976 ft 472 kts 24°
2026-05-04 22:58 53.41946 10.87096 35975 ft 472 kts 24°
2026-05-04 22:58 53.47760 10.92206 35972 ft 471 kts 25°
2026-05-04 22:59 53.53567 10.97331 35996 ft 471 kts 24°
2026-05-04 22:59 53.59369 11.02466 35995 ft 471 kts 24°
2026-05-04 23:00 53.65178 11.07609 35991 ft 471 kts 24°
2026-05-04 23:00 53.71017 11.12797 35990 ft 471 kts 24°
2026-05-04 23:01 53.76822 11.17984 36010 ft 470 kts 24°
2026-05-04 23:01 53.82578 11.23130 36005 ft 469 kts 24°
2026-05-04 23:02 53.88339 11.28305 35994 ft 468 kts 24°
2026-05-04 23:02 53.94097 11.33500 35995 ft 468 kts 24°
2026-05-04 23:03 53.99863 11.38702 35882 ft 469 kts 24°
2026-05-04 23:03 54.02639 11.41212 35321 ft 469 kts 24°
2026-05-04 23:03 54.05220 11.43554 34811 ft 466 kts 24°
2026-05-04 23:04 54.08072 11.46149 34255 ft 464 kts 23°
2026-05-04 23:04 54.10922 11.48747 33653 ft 462 kts 23°
2026-05-04 23:04 54.13746 11.51325 33026 ft 459 kts 23°
2026-05-04 23:04 54.16319 11.53674 32461 ft 458 kts 23°
2026-05-04 23:05 54.19120 11.56237 31850 ft 456 kts 23°
2026-05-04 23:05 54.21852 11.58739 31315 ft 454 kts 23°
2026-05-04 23:05 54.24501 11.61166 30779 ft 452 kts 23°
2026-05-04 23:05 54.26408 11.62914 30401 ft 451 kts 23°
2026-05-04 23:06 54.28905 11.65209 29902 ft 449 kts 23°
2026-05-04 23:06 54.30497 11.66676 29535 ft 448 kts 23°
2026-05-04 23:06 54.31992 11.68053 29201 ft 447 kts 23°
2026-05-04 23:06 54.33449 11.69395 28865 ft 446 kts 23°
2026-05-04 23:07 54.34968 11.70793 28545 ft 444 kts 23°
2026-05-04 23:07 54.35895 11.71648 28354 ft 443 kts 23°
2026-05-04 23:07 54.36904 11.72580 28136 ft 442 kts 23°
2026-05-04 23:07 54.38153 11.73734 27874 ft 441 kts 24°
2026-05-04 23:08 54.40438 11.75847 27393 ft 438 kts 24°
2026-05-04 23:08 54.43126 11.78336 26844 ft 435 kts 24°
2026-05-04 23:08 54.45792 11.80779 26328 ft 432 kts 21°
2026-05-04 23:08 54.48441 11.83024 25810 ft 427 kts 20°
2026-05-04 23:09 54.51133 11.85149 25312 ft 423 kts 18°
2026-05-04 23:09 54.53849 11.87212 24819 ft 419 kts 18°
2026-05-04 23:09 54.56478 11.89188 24349 ft 416 kts 18°
2026-05-04 23:09 54.59117 11.91186 23859 ft 413 kts 18°
2026-05-04 23:10 54.61716 11.93276 23361 ft 413 kts 24°
2026-05-04 23:10 54.64142 11.95948 22801 ft 413 kts 29°
2026-05-04 23:10 54.66523 11.98714 22278 ft 411 kts 30°
2026-05-04 23:10 54.68895 12.01470 21804 ft 408 kts 29°
2026-05-04 23:11 54.71243 12.04196 21313 ft 405 kts 29°
2026-05-04 23:11 54.73580 12.06906 20835 ft 403 kts 30°
2026-05-04 23:11 54.75928 12.09632 20336 ft 400 kts 30°
2026-05-04 23:11 54.78233 12.12308 19875 ft 398 kts 30°
2026-05-04 23:12 54.80523 12.14968 19428 ft 395 kts 30°
2026-05-04 23:12 54.82769 12.17582 19000 ft 392 kts 30°
2026-05-04 23:12 54.85020 12.20208 18563 ft 389 kts 30°
2026-05-04 23:12 54.87260 12.22822 18132 ft 387 kts 30°
2026-05-04 23:13 54.89485 12.25426 17642 ft 384 kts 30°
2026-05-04 23:13 54.91699 12.28021 17190 ft 382 kts 31°
2026-05-04 23:13 54.93896 12.30596 16744 ft 379 kts 31°
2026-05-04 23:13 54.96079 12.33153 16304 ft 377 kts 31°
2026-05-04 23:14 54.98247 12.35691 15875 ft 374 kts 30°
2026-05-04 23:14 55.00398 12.38214 15447 ft 372 kts 30°
2026-05-04 23:14 55.02538 12.40716 15027 ft 369 kts 30°
2026-05-04 23:14 55.04667 12.43199 14610 ft 367 kts 30°
2026-05-04 23:15 55.06782 12.45665 14199 ft 365 kts 30°
2026-05-04 23:15 55.08883 12.48114 13792 ft 362 kts 30°
2026-05-04 23:15 55.10972 12.50555 13334 ft 360 kts 30°
2026-05-04 23:15 55.13051 12.52992 12882 ft 358 kts 30°
2026-05-04 23:16 55.15114 12.55416 12459 ft 356 kts 30°
2026-05-04 23:16 55.16799 12.57403 12089 ft 345 kts 30°
2026-05-04 23:16 55.18748 12.59708 11705 ft 331 kts 30°
2026-05-04 23:16 55.20619 12.61923 11340 ft 321 kts 30°
2026-05-04 23:17 55.22503 12.64113 10955 ft 319 kts 26°
2026-05-04 23:17 55.24473 12.65685 10583 ft 311 kts 13°
2026-05-04 23:17 55.26543 12.66838 10189 ft 306 kts 13°
2026-05-04 23:17 55.28560 12.67976 9801 ft 304 kts 13°
2026-05-04 23:18 55.30576 12.69119 9372 ft 304 kts 13°
2026-05-04 23:18 55.32586 12.70266 9007 ft 302 kts 14°
2026-05-04 23:18 55.34556 12.71395 8956 ft 297 kts 14°
2026-05-04 23:18 55.36526 12.72524 8966 ft 297 kts 14°
2026-05-04 23:19 55.38487 12.73647 8969 ft 296 kts 14°
2026-05-04 23:19 55.40449 12.74770 8966 ft 296 kts 14°
2026-05-04 23:19 55.42411 12.75894 8865 ft 298 kts 14°
2026-05-04 23:19 55.44381 12.77021 8469 ft 297 kts 14°
2026-05-04 23:20 55.46338 12.78147 8083 ft 295 kts 14°
2026-05-04 23:20 55.48283 12.79270 7700 ft 293 kts 14°
2026-05-04 23:20 55.50212 12.80385 7314 ft 291 kts 14°
2026-05-04 23:20 55.52131 12.81493 6950 ft 289 kts 14°
2026-05-04 23:21 55.54034 12.82593 6585 ft 287 kts 14°
2026-05-04 23:21 55.55928 12.83692 6201 ft 285 kts 15°
2026-05-04 23:21 55.57820 12.84938 5780 ft 284 kts 18°
2026-05-04 23:21 55.59638 12.86242 5369 ft 283 kts 19°
2026-05-04 23:22 55.61447 12.87579 5038 ft 279 kts 20°
2026-05-04 23:22 55.63130 12.89244 5012 ft 277 kts 34°
2026-05-04 23:22 55.64527 12.91400 5002 ft 261 kts 39°
2026-05-04 23:22 55.65832 12.93473 5003 ft 245 kts 38°
2026-05-04 23:23 55.67093 12.95433 4977 ft 233 kts 38°
2026-05-04 23:23 55.68319 12.97317 4685 ft 233 kts 38°
2026-05-04 23:23 55.69538 12.99211 4395 ft 233 kts 38°
2026-05-04 23:23 55.70898 13.00645 4136 ft 225 kts
2026-05-04 23:24 55.72396 13.00556 3890 ft 213 kts 335°
2026-05-04 23:24 55.73562 12.99074 3635 ft 205 kts 310°
2026-05-04 23:24 55.74476 12.97162 3371 ft 200 kts 306°
2026-05-04 23:24 55.75321 12.95265 3164 ft 191 kts 306°
2026-05-04 23:25 55.76011 12.93345 3047 ft 181 kts 289°
2026-05-04 23:25 55.76267 12.91192 3006 ft 176 kts 271°
2026-05-04 23:25 55.76097 12.89051 3004 ft 177 kts 252°
2026-05-04 23:25 55.75524 12.87122 3004 ft 179 kts 233°
2026-05-04 23:26 55.74626 12.85581 3006 ft 180 kts 224°
2026-05-04 23:26 55.73682 12.84106 2934 ft 181 kts 224°
2026-05-04 23:26 55.72756 12.82660 2740 ft 174 kts 224°
2026-05-04 23:26 55.71852 12.81249 2524 ft 172 kts 224°
2026-05-04 23:27 55.71254 12.80318 2366 ft 172 kts 224°
2026-05-04 23:27 55.70354 12.78926 2132 ft 169 kts 224°
2026-05-04 23:27 55.69486 12.77570 1902 ft 164 kts 225°
2026-05-04 23:27 55.68644 12.76249 1640 ft 158 kts 225°
2026-05-04 23:28 55.67836 12.74997 1408 ft 152 kts 225°
2026-05-04 23:28 55.67054 12.73771 1209 ft 149 kts 225°
2026-05-04 23:28 55.66281 12.72569 1002 ft 147 kts 225°
2026-05-04 23:28 55.65512 12.71375 806 ft 147 kts 224°
2026-05-04 23:29 55.64747 12.70174 653 ft 147 kts 224°
2026-05-04 23:29 55.63976 12.68980 473 ft 148 kts 224°
2026-05-04 23:29 55.63201 12.67789 266 ft 148 kts 223°
2026-05-04 23:29 55.62433 12.66588 51 ft 147 kts 223°
2026-05-04 23:30 55.61714 12.65464 18 ft 124 kts 220°
2026-05-04 23:30 55.61131 12.64572 18 ft 100 kts 221°
2026-05-04 23:30 55.60731 12.63962 20 ft 52 kts 221°
2026-05-04 23:30 55.60554 12.63677 17 ft 30 kts 221°
2026-05-04 23:31 55.60430 12.63488 17 ft 12 kts 223°
2026-05-04 23:31 55.60413 12.63369 18 ft 10 kts 292°
2026-05-04 23:31 55.60464 12.63265 17 ft 11 kts 311°
2026-05-04 23:31 55.60520 12.63209 17 ft 10 kts
2026-05-04 23:32 55.60574 12.63270 17 ft 9 kts 43°
2026-05-04 23:32 55.60627 12.63353 17 ft 13 kts 40°
2026-05-04 23:32 55.60715 12.63464 17 ft 17 kts 33°
2026-05-04 23:32 55.60819 12.63583 19 ft 19 kts 33°
2026-05-04 23:33 55.60934 12.63715 17 ft 20 kts 33°
2026-05-04 23:33 55.61057 12.63858 17 ft 22 kts 34°
2026-05-04 23:33 55.61192 12.64011 18 ft 24 kts 33°
2026-05-04 23:33 55.61335 12.64175 17 ft 25 kts 32°
2026-05-04 23:34 55.61473 12.64334 18 ft 21 kts 33°
2026-05-04 23:34 55.61597 12.64478 17 ft 19 kts 32°
2026-05-04 23:34 55.61678 12.64567 17 ft 12 kts 20°
2026-05-04 23:34 55.61763 12.64553 18 ft 13 kts 349°
2026-05-04 23:35 55.61860 12.64520 19 ft 15 kts 349°
2026-05-04 23:35 55.61971 12.64482 17 ft 17 kts 349°
2026-05-04 23:35 55.62089 12.64446 17 ft 13 kts 349°
2026-05-04 23:35 55.62184 12.64414 16 ft 16 kts 349°
2026-05-04 23:36 55.62267 12.64395 16 ft 11 kts
2026-05-04 23:36 55.62344 12.64430 17 ft 12 kts 15°
2026-05-04 23:36 55.62414 12.64443 18 ft 10 kts 339°
2026-05-04 23:36 55.62465 12.64348 17 ft 11 kts 309°
2026-05-04 23:37 55.62510 12.64233 18 ft 9 kts 303°
2026-05-04 23:37 55.62556 12.64206 17 ft 7 kts 18°
2026-05-04 23:37 55.62604 12.64261 19 ft 8 kts 34°
2026-05-04 23:37 55.62651 12.64307 17 ft 6 kts 23°
2026-05-04 23:38 55.62677 12.64339 19 ft 6 kts 61°
2026-05-04 23:38 55.62674 12.64400 17 ft 4 kts 101°
2026-05-04 23:38 55.62671 12.64432 17 ft 0 kts 101°